Home   Weather   Nadi   Past weeks

Flag for Fiji Past Weather in Nadi, Fiji — Yesterday and Last 2 Weeks

Now
73 °F

Passing clouds.


Feels Like: 74 °F
Forecast: 74 / 87 °F
Wind: No wind

Location: Nandi

Current Time: Jan 21, 2017 at 8:13:02 am

Latest Report: Jan 21, 2017 at 7:00 am


Visibility: N/A

Pressure: 29.77 "Hg

Humidity: 78%

Dew Point: 66 °F

Location of NadiLocation

Past Weather in Nadi — Graph

°F

Nadi Temperature Yesterday

Maximum temperature yesterday: 86 °F (at 4:00 pm)
Minimum temperature yesterday: 70 °F (at 6:00 am)
Average temperature yesterday: 78 °F

High & Low Weather Summary for the Past Weeks

 TemperatureHumidityPressure
High91 °F (Jan 8, 2:00 pm)100% (Jan 7, 12:00 am)29.92 "Hg (Jan 7, 12:00 am)
Low70 °F (Jan 20, 6:00 am)55% (Jan 16, 11:00 am)29.59 "Hg (Jan 19, 3:00 pm)
Average80 °F82%29.79 "Hg
* Reported Jan 6 8:00 am — Jan 21 7:00 am, Nadi, Weather by CustomWeather, © 2017

Note: Actual official high and low records may vary slightly from our data, if they occured in-between our weather recording intervals... More about our weather records

Advertising

Nadi Weather History for the Previous 24 Hours

Scroll right to see more
 ConditionsComfort  
Time TempWeatherWind HumidityBarometerVisibility
7:00 am
Sat, Jan 21
73 °FPassing clouds.No wind78%29.77 "HgN/A
6:00 am70 °FScattered clouds.7 mph88%29.74 "HgN/A
5:00 am70 °FPassing clouds.6 mph88%29.71 "HgN/A
4:00 am70 °FPassing clouds.6 mph88%29.74 "HgN/A
3:00 am72 °FPassing clouds.No wind83%29.71 "HgN/A
2:00 am72 °FPassing clouds.3 mph88%29.74 "HgN/A
1:00 am72 °FPassing clouds.5 mph83%29.74 "HgN/A
12:00 am73 °FPassing clouds.5 mph78%29.77 "HgN/A
11:00 pm
Fri, Jan 20
73 °FPassing clouds.7 mph78%29.77 "HgN/A
10:00 pm75 °FPassing clouds.3 mph78%29.77 "HgN/A
9:00 pm75 °FPassing clouds.7 mph74%29.77 "HgN/A
8:00 pm77 °FPassing clouds.9 mph74%29.74 "HgN/A
7:00 pm81 °FPassing clouds.5 mph74%29.71 "HgN/A
6:00 pm82 °FBroken clouds.10 mph70%29.68 "HgN/A
5:00 pm84 °FBroken clouds.13 mph62%29.68 "HgN/A
4:00 pm86 °FBroken clouds.12 mph70%29.65 "HgN/A
3:00 pm84 °FBroken clouds.13 mph66%29.68 "HgN/A
2:00 pm84 °FPartly sunny.12 mph62%29.68 "HgN/A
1:00 pm82 °FScattered showers. Partly sunny.5 mph66%29.68 "HgN/A
12:00 pm82 °FScattered showers. Scattered clouds.6 mph58%29.71 "HgN/A
11:00 am81 °FThunderstorms. Broken clouds.20 mph70%29.74 "HgN/A
10:00 am82 °FScattered clouds.7 mph70%29.71 "HgN/A
9:00 am81 °FScattered clouds.5 mph66%29.71 "HgN/A
8:00 am79 °FScattered clouds.5 mph74%29.68 "HgN/A
Weather by CustomWeather, © 2017

See weather overviewHow to use our weather pages